Flag for Canada Weather past 2 weeks in Quispamsis, New Brunswick, Canada

Now
37 °F

Passing clouds.


Feels Like: 32 °F
Forecast: N/A
Wind: 7 mph from Northwest

Location: Saint John

Current Time: Dec 27, 2014 at 6:12:53 PM

Latest Report: Dec 27, 2014 at 5:00 PM


Visibility: 15 mi

Pressure: 30.03 "Hg

Humidity: 56%

Dew point: 23 °F

Location of QuispamsisLocation

Historic Weather in Quispamsis — Graph

°F

Quispamsis temperature yesterday

Maximum temperature yesterday: 46 °F (at 2:00 PM)
Minimum temperature yesterday: 36 °F (at 5:00 AM)
Average temperature yesterday: 40 °F

Past Weeks' High & Low Weather Summary

 TemperatureHumidityPressure
High57 °F (Dec 25, 3:00 AM)100% (Dec 12, 4:00 PM)30.48 "Hg (Dec 12, 4:00 PM)
Low23 °F (Dec 19, 10:00 PM)37% (Dec 26, 2:00 PM)29.37 "Hg (Dec 25, 3:00 PM)
Average33 °F87%29.98 "Hg
* Reported Dec 12 4:00 PM — Dec 27 4:00 PM, Quispamsis, Weather by CustomWeather, © 2014

Note: Actual official high and low records may vary slightly from our data, if they occured in-between our weather recording intervals... More about our weather records

Advertising

Quispamsis weather history for previous 24 hours

 ConditionsComfort  
Time TempWeatherWind HumidityBarometerVisibility
4:00 PM
Dec 27
43 °FPassing clouds.8 mph46%30.03 "Hg15 mi
3:00 PM43 °FPassing clouds.13 mph46%30.01 "Hg15 mi
2:00 PM45 °FPassing clouds.15 mph42%30.00 "Hg15 mi
1:00 PM43 °FScattered clouds.14 mph49%30.01 "Hg15 mi
12:00 PM43 °FScattered clouds.10 mph53%30.03 "Hg15 mi
11:00 AM43 °FScattered clouds.16 mph53%30.04 "Hg15 mi
10:00 AM41 °FPassing clouds.13 mph57%30.03 "Hg15 mi
9:00 AM37 °FPassing clouds.10 mph70%30.01 "Hg15 mi
8:00 AM37 °FPassing clouds.8 mph65%30.00 "Hg15 mi
7:00 AM37 °FPassing clouds.12 mph70%29.98 "Hg15 mi
6:00 AM37 °FPassing clouds.14 mph65%29.96 "Hg15 mi
5:00 AM37 °FOvercast.9 mph65%29.96 "Hg15 mi
4:00 AM36 °FPassing clouds.9 mph70%29.96 "Hg15 mi
3:00 AM36 °FPassing clouds.9 mph70%29.97 "Hg15 mi
2:00 AM36 °FPassing clouds.12 mph70%29.96 "Hg15 mi
1:00 AM34 °FPassing clouds.9 mph70%29.97 "Hg15 mi
12:00 AM34 °FClear.9 mph70%29.98 "Hg15 mi
11:00 PM
Dec 26
36 °FClear.7 mph65%29.97 "Hg15 mi
10:00 PM36 °FClear.8 mph65%29.97 "Hg15 mi
9:00 PM36 °FClear.6 mph65%29.96 "Hg15 mi
8:00 PM37 °FClear.12 mph60%29.96 "Hg15 mi
7:00 PM39 °FClear.8 mph52%29.96 "Hg15 mi
6:00 PM39 °FClear.8 mph52%29.93 "Hg15 mi
Weather by CustomWeather, © 2014

See weather overviewHow to use our weather pages